• In Uzbekistan
  • List of Countries
  • For 7 days
  • Water Temperature
  • Weather Map
  • Weather Widgets
  • user-avatar
    Login

    Hourly Weather Santa Fe

    Today, 23 February, Sunday

    Time Temperature Precipitation Wind Pressure Humidity
    00:00 +17°C° 0 mm 2 mps 763 mmHg 42%
    01:00 +17°C° 0 mm 2 mps 763 mmHg 46%
    02:00 +16°C° 0 mm 2 mps 763 mmHg 49%
    03:00 +16°C° 0 mm 2 mps 762 mmHg 52%
    04:00 +15°C° 0 mm 2 mps 762 mmHg 54%
    05:00 +15°C° 0 mm 2 mps 762 mmHg 57%
    06:00 +17°C° 0 mm 2 mps 762 mmHg 52%
    07:00 +19°C° 0 mm 2 mps 762 mmHg 48%
    08:00 +21°C° 0 mm 2 mps 762 mmHg 43%
    09:00 +24°C° 0 mm 2 mps 762 mmHg 38%
    10:00 +27°C° 0 mm 3 mps 762 mmHg 33%
    11:00 +29°C° 0 mm 3 mps 761 mmHg 28%
    12:00 +30°C° 0 mm 3 mps 760 mmHg 27%
    13:00 +31°C° 0 mm 3 mps 759 mmHg 25%
    14:00 +33°C° 0 mm 3 mps 759 mmHg 24%
    15:00 +33°C° 0 mm 3 mps 758 mmHg 24%
    16:00 +33°C° 0 mm 4 mps 757 mmHg 25%
    17:00 +33°C° 0 mm 4 mps 756 mmHg 25%
    18:00 +29°C° 0 mm 4 mps 756 mmHg 31%
    19:00 +27°C° 0 mm 3 mps 756 mmHg 36%
    20:00 +24°C° 0 mm 3 mps 756 mmHg 42%
    21:00 +24°C° 0 mm 3 mps 756 mmHg 45%
    22:00 +22°C° 0 mm 3 mps 756 mmHg 49%
    23:00 +21°C° 0 mm 3 mps 757 mmHg 52%

    Tomorrow, 24 February, Monday

    Time Temperature Precipitation Wind Pressure Humidity
    00:00 +20°C° 0 mm 3 mps 756 mmHg 55%
    01:00 +20°C° 0 mm 3 mps 756 mmHg 58%
    02:00 +19°C° 0 mm 3 mps 755 mmHg 61%
    03:00 +18°C° 0 mm 3 mps 755 mmHg 62%
    04:00 +18°C° 0 mm 3 mps 755 mmHg 63%
    05:00 +17°C° 0 mm 2 mps 755 mmHg 64%
    06:00 +19°C° 0 mm 3 mps 755 mmHg 58%
    07:00 +21°C° 0 mm 3 mps 755 mmHg 53%
    08:00 +24°C° 0 mm 3 mps 755 mmHg 47%
    09:00 +27°C° 0 mm 4 mps 755 mmHg 39%
    10:00 +30°C° 0 mm 4 mps 754 mmHg 32%
    11:00 +34°C° 0 mm 4 mps 754 mmHg 24%
    12:00 +35°C° 0 mm 4 mps 753 mmHg 22%
    13:00 +36°C° 0 mm 4 mps 752 mmHg 20%
    14:00 +37°C° 0 mm 4 mps 751 mmHg 18%
    15:00 +37°C° 0 mm 4 mps 751 mmHg 18%
    16:00 +37°C° 0 mm 4 mps 750 mmHg 19%
    17:00 +37°C° 0 mm 4 mps 750 mmHg 19%
    18:00 +34°C° 0 mm 4 mps 750 mmHg 24%
    19:00 +30°C° 0 mm 3 mps 750 mmHg 29%
    20:00 +27°C° 0 mm 3 mps 751 mmHg 34%
    21:00 +26°C° 0 mm 3 mps 751 mmHg 36%
    22:00 +25°C° 0 mm 3 mps 752 mmHg 37%
    23:00 +25°C° 0 mm 3 mps 752 mmHg 39%

    Day after tomorrow, 25 February, Tuesday

    Time Temperature Precipitation Wind Pressure Humidity
    00:00 +24°C° 0 mm 2 mps 752 mmHg 41%
    01:00 +23°C° 0 mm 2 mps 752 mmHg 43%
    02:00 +23°C° 0 mm 2 mps 753 mmHg 44%
    03:00 +23°C° 0 mm 2 mps 753 mmHg 45%
    04:00 +21°C° 0 mm 3 mps 754 mmHg 45%
    05:00 +21°C° 0 mm 3 mps 754 mmHg 45%
    06:00 +22°C° 0 mm 4 mps 755 mmHg 39%
    07:00 +24°C° 0 mm 6 mps 755 mmHg 34%
    08:00 +26°C° 0 mm 7 mps 756 mmHg 28%
    09:00 +27°C° 0 mm 7 mps 756 mmHg 30%
    10:00 +28°C° 0 mm 7 mps 757 mmHg 32%
    11:00 +30°C° 0 mm 7 mps 757 mmHg 35%
    12:00 +30°C° 0 mm 7 mps 757 mmHg 34%
    13:00 +30°C° 0 mm 6 mps 756 mmHg 34%
    14:00 +30°C° 0 mm 5 mps 756 mmHg 33%
    15:00 +32°C° 0 mm 4 mps 755 mmHg 32%
    16:00 +32°C° 0 mm 4 mps 755 mmHg 30%
    17:00 +33°C° 0 mm 4 mps 755 mmHg 28%
    18:00 +29°C° 0 mm 3 mps 755 mmHg 34%
    19:00 +27°C° 0 mm 3 mps 755 mmHg 40%
    20:00 +24°C° 0 mm 2 mps 756 mmHg 45%
    21:00 +24°C° 0 mm 2 mps 756 mmHg 50%
    22:00 +23°C° 0 mm 2 mps 757 mmHg 54%
    23:00 +21°C° 0 mm 2 mps 757 mmHg 59%

    26 February, Wednesday

    Time Temperature Precipitation Wind Pressure Humidity
    00:00 +20°C° 0 mm 2 mps 757 mmHg 62%
    01:00 +19°C° 0 mm 2 mps 757 mmHg 65%
    02:00 +19°C° 0 mm 2 mps 757 mmHg 69%
    03:00 +18°C° 0 mm 2 mps 757 mmHg 70%
    04:00 +18°C° 0 mm 2 mps 757 mmHg 72%
    05:00 +18°C° 0 mm 1 mps 758 mmHg 74%
    06:00 +19°C° 0 mm 2 mps 758 mmHg 66%
    07:00 +21°C° 0 mm 2 mps 758 mmHg 59%
    08:00 +24°C° 0 mm 2 mps 758 mmHg 51%
    09:00 +27°C° 0 mm 2 mps 758 mmHg 41%
    10:00 +30°C° 0 mm 2 mps 758 mmHg 31%
    11:00 +34°C° 0 mm 2 mps 758 mmHg 21%
    12:00 +35°C° 0 mm 3 mps 757 mmHg 18%
    13:00 +36°C° 0 mm 3 mps 757 mmHg 15%
    14:00 +37°C° 0 mm 3 mps 756 mmHg 13%
    15:00 +36°C° 0 mm 3 mps 756 mmHg 13%
    16:00 +36°C° 0 mm 4 mps 755 mmHg 14%
    17:00 +36°C° 0 mm 4 mps 755 mmHg 14%
    18:00 +33°C° 0 mm 4 mps 755 mmHg 18%
    19:00 +29°C° 0 mm 4 mps 756 mmHg 22%
    20:00 +27°C° 0 mm 4 mps 756 mmHg 25%
    21:00 +26°C° 0 mm 4 mps 756 mmHg 29%
    22:00 +25°C° 0 mm 4 mps 757 mmHg 33%
    23:00 +25°C° 0 mm 5 mps 757 mmHg 37%

    27 February, Thursday

    Time Temperature Precipitation Wind Pressure Humidity
    00:00 +23°C° 0 mm 5 mps 758 mmHg 39%
    01:00 +22°C° 0 mm 4 mps 758 mmHg 41%
    02:00 +22°C° 0 mm 4 mps 758 mmHg 43%
    03:00 +21°C° 0 mm 4 mps 758 mmHg 46%
    04:00 +20°C° 0 mm 4 mps 759 mmHg 50%
    05:00 +19°C° 0 mm 4 mps 759 mmHg 53%
    06:00 +21°C° 0 mm 4 mps 759 mmHg 49%
    07:00 +22°C° 0 mm 4 mps 759 mmHg 46%
    08:00 +25°C° 0 mm 5 mps 759 mmHg 42%
    09:00 +27°C° 0 mm 4 mps 759 mmHg 36%
    10:00 +30°C° 0 mm 4 mps 759 mmHg 31%
    11:00 +33°C° 0 mm 3 mps 758 mmHg 25%
    12:00 +34°C° 0 mm 3 mps 758 mmHg 23%
    13:00 +35°C° 0 mm 3 mps 757 mmHg 21%
    14:00 +36°C° 0 mm 2 mps 756 mmHg 19%
    15:00 +36°C° 0 mm 2 mps 755 mmHg 19%
    16:00 +36°C° 0 mm 2 mps 755 mmHg 19%
    17:00 +36°C° 0 mm 2 mps 754 mmHg 19%
    18:00 +32°C° 0 mm 2 mps 755 mmHg 23%
    19:00 +30°C° 0 mm 2 mps 755 mmHg 26%
    20:00 +27°C° 0 mm 2 mps 755 mmHg 30%
    21:00 +26°C° 0 mm 3 mps 756 mmHg 31%
    22:00 +25°C° 0 mm 4 mps 756 mmHg 32%
    23:00 +25°C° 0 mm 4 mps 756 mmHg 33%

    28 February, Friday

    Time Temperature Precipitation Wind Pressure Humidity
    00:00 +23°C° 0 mm 4 mps 756 mmHg 38%
    01:00 +22°C° 0 mm 3 mps 756 mmHg 42%
    02:00 +21°C° 0 mm 3 mps 756 mmHg 47%
    03:00 +21°C° 0 mm 3 mps 757 mmHg 48%
    04:00 +20°C° 0 mm 3 mps 757 mmHg 50%
    05:00 +19°C° 0 mm 3 mps 757 mmHg 51%
    06:00 +21°C° 0 mm 3 mps 757 mmHg 47%
    07:00 +24°C° 0 mm 3 mps 758 mmHg 43%
    08:00 +26°C° 0 mm 4 mps 758 mmHg 39%
    09:00 +29°C° 0 mm 3 mps 758 mmHg 34%
    10:00 +31°C° 0 mm 3 mps 757 mmHg 29%
    11:00 +35°C° 0 mm 3 mps 757 mmHg 24%
    12:00 +36°C° 0 mm 3 mps 756 mmHg 21%
    13:00 +38°C° 0 mm 2 mps 756 mmHg 19%
    14:00 +39°C° 0 mm 1 mps 755 mmHg 16%
    15:00 +39°C° 0 mm 1 mps 755 mmHg 16%
    16:00 +38°C° 0 mm 2 mps 754 mmHg 16%
    17:00 +38°C° 0 mm 2 mps 754 mmHg 17%
    18:00 +35°C° 0 mm 2 mps 754 mmHg 20%
    19:00 +31°C° 0 mm 2 mps 754 mmHg 23%
    20:00 +29°C° 0 mm 1 mps 755 mmHg 26%
    21:00 +28°C° 0 mm 2 mps 755 mmHg 28%
    22:00 +27°C° 0 mm 2 mps 756 mmHg 29%
    23:00 +26°C° 0 mm 2 mps 756 mmHg 31%
    Show more